Regional Weather Roundup
Issued by NWS

Home | Current Version | Previous Version | Text Only | Print | Product List | Glossary On
Versions: 1 2 3 4 5 6 7 8 9 10 11 12 13 14 15 16 17 18 19 20 21 22 23 24 25 26 27 28 29 30 31 32 33 34 35 36 37 38 39 40 41 42 43 44 45 46 47 48 49 50
960
ASUS45 KSLC 211510
RWRUT

UTAH REGIONAL WEATHER ROUNDUP
NATIONAL WEATHER SERVICE SALT LAKE CITY UT
800 AM MST TUE NOV 21 2017

UTZ001>011-023>025-211600-

NORTHERN UTAH

CITY           SKY/WX    TMP DP  RH WIND       PRES   REMARKS
BRIGHAM CITY   CLOUDY    40  36  85 CALM      30.31R
DUGWAY         MOCLDY    38  33  81 SE3       30.28R
HILL AFB       CLOUDY    42  35  75 CALM      30.29R
LOGAN          CLOUDY    41  38  89 CALM      30.29S
OGDEN          CLOUDY    41  37  86 CALM      30.29R
SALT LAKE CITY MOCLDY    44  39  82 NW3       30.30R
TOOELE VALLEY  CLOUDY    41  36  81 CALM      30.31R
WENDOVER       MOCLDY    40  29  64 CALM      30.32R
HEBER CITY     CLOUDY    39  36  87 E6        30.30R WCI  35
WEST JORDAN    CLOUDY    43  37  80 CALM      30.31R

$$

UTZ011>015-024>027-211600-

CENTRAL/NORTHEAST UTAH

CITY           SKY/WX    TMP DP  RH WIND       PRES   REMARKS
PROVO AIRPORT  MOCLDY    42  39  89 S5        30.30R
MOAB/CANYONLAN MOCLDY    26   9  48 W5        30.32R WCI  20
DELTA          PTCLDY    32  23  69 E3        30.31R
PRICE          CLOUDY    34  13  41 NE5       30.32R WCI  30
ROOSEVELT      CLOUDY    30  18  59 W7        30.30R WCI  23
VERNAL         CLOUDY    33  18  53 W8        30.28R WCI  26

$$

UTZ013>016-019>022-027-211600-

SOUTHERN UTAH

CITY           SKY/WX    TMP DP  RH WIND       PRES   REMARKS
BRYCE CANYON   PTCLDY    29  11  47 CALM      30.38R
CEDAR CITY     PTCLDY    31  19  61 CALM      30.30R
MILFORD        PTCLDY    28  15  58 SW6       30.30R WCI  22
ST GEORGE      MOSUNNY   38  11  32 CALM      30.29S
HANKSVILLE     MOCLDY    28   9  43 MISG      30.36R
BLANDING         N/A     40  11  30 NW3       30.37R

$$

REGIONAL REPORTS     COLORADO/ARIZONA

CITY           SKY/WX    TMP DP  RH WIND       PRES   REMARKS
CRAIG, CO      CLOUDY    35  31  85 CALM      30.29R
GRAND JUNCTION CLOUDY    37  23  56 SE3       30.34R
RIFLE, CO      CLOUDY    34  30  85 CALM      30.37R
MONTROSE, CO   CLOUDY    35  26  69 E5        30.36R WCI  31
CORTEZ, CO     CLOUDY    30  17  58 NE6       30.29R WCI  24
COLORADO CITY    N/A     32  12  43 E5        30.33S WCI  27
PAGE, AZ       PTCLDY    40  14  34 CALM      30.31R
GRAND CANYON   PTCLDY    29   6  38 CALM      30.35R SMOKE
KINGMAN, AZ    PTCLDY    44  14  29 E7        30.24R
FLAGSTAFF, AZ  PTCLDY    32  13  45 CALM      30.34R

$$

REGIONAL REPORTS    NEVADA/IDAHO/WYOMING

CITY           SKY/WX    TMP DP  RH WIND       PRES   REMARKS
LAS VEGAS, NV  MOCLDY    50  16  25 W6        30.24R
ELY, NY        CLOUDY    44  27  51 VRB3      30.36R
ELKO, NV       CLOUDY    46  42  86 SW3       30.34R
POCATELLO, ID  CLOUDY    43  41  93 SW7       30.28R
BURLEY, ID     CLOUDY    48  44  86 SW9       30.27R
FORT BRIDGER,  CLOUDY    39  38  94 W13       30.34R WCI  32
EVANSTON, WY   CLOUDY    38  35  89 W17       30.31R WCI  28
ROCK SPRINGS,  CLOUDY    37  33  85 SW17      30.27R WCI  27
KEMMERER, WY   CLOUDY    36  34  93 S9        30.30R WCI  29

$$




USA.gov is the U.S. government's official web portal to all federal, state and local government web resources and services.